| time (UTC) | temp C | wind direction | speed KPH | gust KPH | rain 1hr cm | rain 24hr cm | rain mn cm | humidity % | barometer mb |
| 20260507220024 | 10 | 73 | 3.2 | 9.7 | 0.00 | 0.00 | 0.00 | 89 | 1012.2 |
| 20260507215021 | 10 | 103 | 4.8 | 9.7 | 0.00 | 0.00 | 0.00 | 89 | 1012.4 |
| 20260507214022 | 11 | 121 | 4.8 | 11.3 | 0.00 | 0.00 | 0.00 | 91 | 1012.3 |
| 20260507213022 | 11 | 169 | 0.0 | 9.7 | 0.00 | 0.00 | 0.00 | 91 | 1012.4 |
| 20260507212021 | 11 | 131 | 3.2 | 9.7 | 0.00 | 0.00 | 0.00 | 91 | 1012.3 |
| 20260507211022 | 11 | 133 | 3.2 | 11.3 | 0.00 | 0.00 | 0.00 | 90 | 1012.4 |
| 20260507210021 | 11 | 115 | 3.2 | 14.5 | 0.00 | 0.00 | 0.00 | 87 | 1012.3 |
| 20260507205021 | 11 | 110 | 4.8 | 11.3 | 0.00 | 0.00 | 0.00 | 86 | 1012.0 |
| 20260507204022 | 11 | 154 | 3.2 | 11.3 | 0.00 | 0.00 | 0.00 | 84 | 1012.2 |
| 20260507203023 | 10 | 110 | 4.8 | 12.9 | 0.00 | 0.00 | 0.00 | 84 | 1012.4 |
| 20260507202028 | 10 | 93 | 6.4 | 12.9 | 0.00 | 0.00 | 0.00 | 86 | 1012.4 |
| 20260507201022 | 10 | 156 | 3.2 | 12.9 | 0.00 | 0.00 | 0.00 | 86 | 1012.6 |
| 20260507200022 | 10 | 90 | 6.4 | 11.3 | 0.00 | 0.00 | 0.00 | 88 | 1012.9 |
| 20260507195022 | 10 | 69 | 6.4 | 14.5 | 0.00 | 0.00 | 0.00 | 86 | 1012.7 |
| 20260507194022 | 11 | 158 | 1.6 | 11.3 | 0.00 | 0.00 | 0.00 | 85 | 1012.9 |
| 20260507193022 | 12 | 62 | 1.6 | 11.3 | 0.00 | 0.00 | 0.00 | 81 | 1013.0 |
| 20260507192022 | 11 | 124 | 8.0 | 14.5 | 0.00 | 0.00 | 0.00 | 82 | 1012.8 |
| 20260507191022 | 11 | 116 | 4.8 | 11.3 | 0.00 | 0.00 | 0.00 | 76 | 1013.2 |
| 20260507190021 | 10 | 89 | 4.8 | 11.3 | 0.00 | 0.00 | 0.00 | 84 | 1012.7 |
| 20260507185021 | 10 | 93 | 4.8 | 9.7 | 0.00 | 0.00 | 0.00 | 86 | 1013.4 |
| 20260507184022 | 10 | 97 | 3.2 | 11.3 | 0.00 | 0.00 | 0.00 | 91 | 1013.4 |
| 20260507183023 | 10 | 89 | 6.4 | 8.0 | 0.00 | 0.00 | 0.00 | 88 | 1013.5 |
| 20260507182021 | 10 | 117 | 4.8 | 9.7 | 0.00 | 0.00 | 0.00 | 89 | 1013.3 |
| 20260507181022 | 10 | 143 | 3.2 | 8.0 | 0.00 | 0.00 | 0.00 | 90 | 1013.3 |
| 20260507180022 | 10 | 125 | 4.8 | 11.3 | 0.00 | 0.00 | 0.00 | 89 | 1013.5 |
| 20260507175021 | 9 | 112 | 3.2 | 14.5 | 0.00 | 0.00 | 0.00 | 88 | 1013.6 |
| 20260507174021 | 9 | 109 | 8.0 | 14.5 | 0.00 | 0.00 | 0.00 | 88 | 1013.4 |
| 20260507173022 | 9 | 102 | 4.8 | 9.7 | 0.00 | 0.00 | 0.00 | 89 | 1013.8 |
| 20260507172023 | 9 | 119 | 4.8 | 8.0 | 0.00 | 0.00 | 0.00 | 88 | 1013.9 |
| 20260507171022 | 10 | 130 | 3.2 | 6.4 | 0.00 | 0.00 | 0.00 | 86 | 1014.0 |
| 20260507170021 | 10 | 107 | 6.4 | 8.0 | 0.00 | 0.00 | 0.00 | 87 | 1014.0 |
| 20260507165024 | 10 | 105 | 3.2 | 6.4 | 0.00 | 0.00 | 0.00 | 88 | 1014.2 |
| 20260507164021 | 10 | 128 | 1.6 | 3.2 | 0.00 | 0.00 | 0.00 | 90 | 1014.2 |
| 20260507163022 | 10 | 180 | 0.0 | 8.0 | 0.00 | 0.00 | 0.00 | 90 | 1014.3 |
| 20260507162022 | 10 | 134 | 0.0 | 6.4 | 0.00 | 0.00 | 0.00 | 91 | 1014.3 |
| 20260507161022 | 10 | 158 | 0.0 | 6.4 | 0.00 | 0.00 | 0.00 | 92 | 1014.5 |
| 20260507160021 | 10 | 138 | 1.6 | 6.4 | 0.00 | 0.00 | 0.00 | 91 | 1014.6 |
| 20260507155024 | 10 | 126 | 1.6 | 6.4 | 0.00 | 0.00 | 0.00 | 94 | 1014.6 |
| 20260507154021 | 10 | 154 | 1.6 | 6.4 | 0.00 | 0.00 | 0.00 | 94 | 1014.9 |
| 20260507153021 | 10 | 54 | 0.0 | 4.8 | 0.00 | 0.00 | 0.00 | 93 | 1015.0 |
| 20260507152022 | 10 | 175 | 1.6 | 3.2 | 0.00 | 0.00 | 0.00 | 94 | 1014.8 |
| 20260507151021 | 11 | 34 | 0.0 | 3.2 | 0.00 | 0.00 | 0.00 | 95 | 1014.6 |
| 20260507150022 | 11 | 18 | 1.6 | 3.2 | 0.00 | 0.00 | 0.00 | 96 | 1014.6 |
| 20260507145021 | 10 | 294 | 3.2 | 3.2 | 0.00 | 0.00 | 0.00 | 97 | 1014.6 |
| 20260507144022 | 10 | 296 | 3.2 | 4.8 | 0.00 | 0.00 | 0.00 | 97 | 1014.8 |
| 20260507143022 | 10 | 275 | 3.2 | 6.4 | 0.00 | 0.00 | 0.00 | 96 | 1015.0 |
| 20260507142024 | 10 | 330 | 4.8 | 6.4 | 0.00 | 0.00 | 0.00 | 95 | 1015.0 |
| 20260507141022 | 10 | 319 | 4.8 | 9.7 | 0.00 | 0.00 | 0.00 | 95 | 1015.0 |
| 20260507140021 | 10 | 302 | 3.2 | 8.0 | 0.00 | 0.00 | 0.00 | 96 | 1015.1 |
| 20260507135022 | 10 | 303 | 3.2 | 6.4 | 0.00 | 0.00 | 0.00 | 95 | 1015.1 |
| 20260507134021 | 11 | 324 | 4.8 | 6.4 | 0.00 | 0.00 | 0.00 | 94 | 1015.1 |
| 20260507133022 | 11 | 259 | 1.6 | 4.8 | 0.00 | 0.00 | 0.00 | 93 | 1015.2 |
| 20260507132021 | 10 | 8 | 0.0 | 4.8 | 0.00 | 0.00 | 0.00 | 93 | 1015.2 |
| 20260507131024 | 11 | 295 | 1.6 | 4.8 | 0.00 | 0.00 | 0.00 | 93 | 1015.1 |
| 20260507130021 | 11 | 287 | 0.0 | 4.8 | 0.00 | 0.00 | 0.00 | 94 | 1015.1 |
| 20260507125024 | 11 | 297 | 3.2 | 6.4 | 0.00 | 0.00 | 0.00 | 92 | 1015.0 |
| 20260507124021 | 11 | 331 | 4.8 | 6.4 | 0.00 | 0.00 | 0.00 | 94 | 1014.8 |
| 20260507123022 | 10 | 304 | 1.6 | 6.4 | 0.00 | 0.00 | 0.00 | 96 | 1014.9 |
| 20260507122021 | 10 | 290 | 3.2 | 6.4 | 0.00 | 0.00 | 0.00 | 97 | 1015.0 |
| 20260507121024 | 10 | 276 | 3.2 | 4.8 | 0.00 | 0.00 | 0.00 | 98 | 1014.8 |
| 20260507120021 | 10 | 290 | 3.2 | 6.4 | 0.00 | 0.00 | 0.00 | 99 | 1014.5 |
| 20260507115022 | 10 | 295 | 1.6 | 4.8 | 0.00 | 0.00 | 0.00 | 99 | 1014.7 |
| 20260507114021 | 10 | 309 | 1.6 | 4.8 | 0.00 | 0.00 | 0.00 | 99 | 1014.5 |
| 20260507113023 | 10 | 272 | 1.6 | 6.4 | 0.00 | 0.00 | 0.00 | 99 | 1014.4 |
| 20260507112022 | 10 | 314 | 1.6 | 6.4 | 0.00 | 0.00 | 0.00 | 99 | 1014.5 |
| 20260507111021 | 10 | 315 | 3.2 | 4.8 | 0.00 | 0.00 | 0.00 | 99 | 1014.2 |
| 20260507110022 | 10 | 180 | 0.0 | 4.8 | 0.00 | 0.00 | 0.00 | 99 | 1014.0 |
| 20260507105021 | 10 | 180 | 0.0 | 3.2 | 0.00 | 0.00 | 0.00 | 99 | 1013.8 |
| 20260507104022 | 10 | 281 | 3.2 | 3.2 | 0.00 | 0.00 | 0.00 | 99 | 1013.9 |
| 20260507103022 | 10 | 305 | 0.0 | 4.8 | 0.00 | 0.00 | 0.00 | 99 | 1014.0 |
| 20260507102022 | 10 | 299 | 0.0 | 3.2 | 0.00 | 0.00 | 0.00 | 99 | 1013.9 |
| 20260507101021 | 10 | 180 | 0.0 | 3.2 | 0.00 | 0.00 | 0.00 | 99 | 1013.9 |
| 20260507100023 | 10 | 180 | 0.0 | 3.2 | 0.00 | 0.00 | 0.00 | 99 | 1014.0 |
| 20260507095022 | 10 | 183 | 0.0 | 8.0 | 0.00 | 0.00 | 0.00 | 99 | 1013.8 |
| 20260507094021 | 10 | 132 | 3.2 | 11.3 | 0.00 | 0.00 | 0.00 | 99 | 1013.3 |
| 20260507093022 | 10 | 142 | 3.2 | 9.7 | 0.00 | 0.00 | 0.00 | 99 | 1013.6 |
| 20260507092021 | 10 | 128 | 3.2 | 11.3 | 0.00 | 0.00 | 0.00 | 99 | 1013.7 |
| 20260507091024 | 10 | 147 | 3.2 | 6.4 | 0.00 | 0.00 | 0.00 | 99 | 1013.9 |
| 20260507090021 | 11 | 138 | 3.2 | 8.0 | 0.00 | 0.00 | 0.00 | 99 | 1013.9 |
| 20260507085022 | 11 | 123 | 4.8 | 9.7 | 0.00 | 0.00 | 0.00 | 99 | 1013.5 |
| 20260507084021 | 11 | 112 | 4.8 | 11.3 | 0.00 | 0.00 | 0.00 | 99 | 1013.4 |
| 20260507083022 | 11 | 123 | 4.8 | 11.3 | 0.00 | 0.00 | 0.00 | 99 | 1013.4 |
| 20260507082021 | 11 | 135 | 6.4 | 12.9 | 0.00 | 0.00 | 0.00 | 99 | 1013.3 |
| 20260507081021 | 11 | 137 | 4.8 | 9.7 | 0.00 | 0.00 | 0.00 | 99 | 1013.1 |
| 20260507080022 | 12 | 128 | 3.2 | 11.3 | 0.00 | 0.00 | 0.00 | 99 | 1013.3 |
| 20260507075021 | 12 | 144 | 9.7 | 16.1 | 0.00 | 0.00 | 0.00 | 99 | 1013.2 |
| 20260507074024 | 12 | 117 | 4.8 | 9.7 | 0.00 | 0.00 | 0.00 | 99 | 1013.3 |
| 20260507073021 | 13 | 135 | 6.4 | 11.3 | 0.00 | 0.00 | 0.00 | 99 | 1013.0 |
| 20260507072024 | 14 | 140 | 1.6 | 4.8 | 0.00 | 0.00 | 0.00 | 99 | 1012.8 |
| 20260507071022 | 15 | 275 | 1.6 | 3.2 | 0.00 | 0.00 | 0.00 | 99 | 1013.0 |
| 20260507070021 | 15 | 180 | 0.0 | 3.2 | 0.00 | 0.00 | 0.00 | 99 | 1012.5 |
| 20260507065022 | 15 | 309 | 3.2 | 6.4 | 0.00 | 0.00 | 0.00 | 99 | 1012.5 |
| 20260507064021 | 16 | 283 | 3.2 | 4.8 | 0.00 | 0.00 | 0.00 | 99 | 1012.6 |
| 20260507063022 | 16 | 322 | 4.8 | 6.4 | 0.00 | 0.00 | 0.00 | 99 | 1013.1 |
| 20260507062022 | 16 | 283 | 3.2 | 4.8 | 0.00 | 0.00 | 0.00 | 99 | 1013.0 |
| 20260507061022 | 16 | 290 | 3.2 | 6.4 | 0.00 | 0.00 | 0.00 | 99 | 1013.1 |
| 20260507060021 | 16 | 281 | 4.8 | 6.4 | 0.00 | 0.00 | 0.00 | 99 | 1013.0 |
| 20260507055021 | 16 | 281 | 4.8 | 6.4 | 0.00 | 0.00 | 0.00 | 99 | 1013.0 |
| 20260507054022 | 16 | 286 | 3.2 | 4.8 | 0.00 | 0.00 | 0.00 | 98 | 1012.9 |
| 20260507053021 | 17 | 200 | 0.0 | 6.4 | 0.00 | 0.00 | 0.00 | 97 | 1012.3 |
| 20260507052022 | 17 | 102 | 4.8 | 8.0 | 0.00 | 0.00 | 0.00 | 97 | 1011.9 |
| 20260507051021 | 17 | 104 | 3.2 | 3.2 | 0.00 | 0.00 | 0.00 | 96 | 1012.2 |
| 20260507050024 | 17 | 183 | 1.6 | 3.2 | 0.00 | 0.00 | 0.00 | 94 | 1012.4 |
| 20260507045021 | 17 | 180 | 0.0 | 4.8 | 0.00 | 0.00 | 0.00 | 93 | 1012.4 |
| 20260507044022 | 17 | 271 | 1.6 | 6.4 | 0.00 | 0.00 | 0.00 | 95 | 1012.7 |
| 20260507043023 | 17 | 87 | 1.6 | 11.3 | 0.00 | 0.00 | 0.00 | 96 | 1013.0 |
| 20260507042022 | 17 | 173 | 1.6 | 8.0 | 0.00 | 0.00 | 0.00 | 96 | 1013.1 |
| 20260507041021 | 17 | 83 | 3.2 | 8.0 | 0.00 | 0.00 | 0.00 | 96 | 1012.8 |
| 20260507040022 | 17 | 95 | 4.8 | 11.3 | 0.00 | 0.00 | 0.00 | 96 | 1012.6 |
| 20260507035022 | 17 | 253 | 4.8 | 16.1 | 0.00 | 0.00 | 0.10 | 95 | 1012.8 |
| 20260507034021 | 17 | 80 | 6.4 | 17.7 | 0.00 | 0.00 | 0.10 | 95 | 1013.1 |
| 20260507033022 | 17 | 315 | 4.8 | 8.0 | 0.00 | 0.00 | 0.10 | 94 | 1013.4 |
| 20260507032021 | 17 | 63 | 4.8 | 17.7 | 0.00 | 0.00 | 0.10 | 94 | 1013.1 |
| 20260507031024 | 17 | 29 | 4.8 | 12.9 | 0.00 | 0.00 | 0.10 | 94 | 1013.1 |
| 20260507030021 | 17 | 85 | 4.8 | 11.3 | 0.00 | 0.00 | 0.10 | 96 | 1012.9 |
| 20260507025024 | 17 | 33 | 4.8 | 9.7 | 0.00 | 0.00 | 0.10 | 96 | 1012.9 |
| 20260507024021 | 17 | 65 | 1.6 | 16.1 | 0.00 | 0.00 | 0.10 | 95 | 1013.3 |
| 20260507023022 | 17 | 35 | 3.2 | 14.5 | 0.00 | 0.00 | 0.10 | 95 | 1013.3 |
| 20260507022021 | 17 | 68 | 8.0 | 12.9 | 0.00 | 0.00 | 0.10 | 96 | 1012.7 |
| 20260507021021 | 17 | 106 | 8.0 | 16.1 | 0.00 | 0.00 | 0.10 | 96 | 1012.4 |
| 20260507020022 | 17 | 84 | 6.4 | 16.1 | 0.00 | 0.00 | 0.10 | 95 | 1011.9 |
| 20260507015021 | 17 | 96 | 9.7 | 16.1 | 0.00 | 0.00 | 0.10 | 95 | 1012.4 |
| 20260507014022 | 17 | 110 | 3.2 | 22.5 | 0.00 | 0.00 | 0.10 | 95 | 1012.6 |
| 20260507013021 | 17 | 90 | 4.8 | 14.5 | 0.00 | 0.00 | 0.10 | 95 | 1012.8 |
| 20260507012021 | 17 | 75 | 8.0 | 12.9 | 0.00 | 0.00 | 0.10 | 94 | 1012.5 |
| 20260507011022 | 17 | 129 | 4.8 | 11.3 | 0.00 | 0.00 | 0.10 | 94 | 1012.9 |
| 20260507010021 | 17 | 72 | 4.8 | 11.3 | 0.00 | 0.00 | 0.10 | 94 | 1013.0 |
| 20260507005021 | 17 | 104 | 6.4 | 16.1 | 0.00 | 0.00 | 0.10 | 94 | 1012.9 |
| 20260507004022 | 17 | 108 | 6.4 | 14.5 | 0.00 | 0.00 | 0.10 | 94 | 1012.8 |
| 20260507003021 | 17 | 98 | 3.2 | 14.5 | 0.00 | 0.00 | 0.10 | 94 | 1012.8 |
| 20260507002021 | 17 | 91 | 8.0 | 17.7 | 0.00 | 0.00 | 0.10 | 93 | 1012.7 |
| 20260507001022 | 17 | 93 | 3.2 | 14.5 | 0.00 | 0.00 | 0.10 | 93 | 1012.8 |
| 20260507000023 | 17 | 113 | 4.8 | 14.5 | 0.00 | 0.00 | 0.10 | 93 | 1012.7 |
| 20260506235021 | 17 | 80 | 4.8 | 16.1 | 0.00 | 0.00 | 0.10 | 92 | 1012.6 |
| 20260506234022 | 17 | 99 | 8.0 | 17.7 | 0.00 | 0.00 | 0.10 | 91 | 1012.2 |
| 20260506233022 | 18 | 66 | 4.8 | 11.3 | 0.00 | 0.00 | 0.10 | 91 | 1012.6 |
| 20260506232022 | 18 | 84 | 1.6 | 16.1 | 0.00 | 0.00 | 0.10 | 91 | 1012.9 |
| 20260506231021 | 18 | 87 | 6.4 | 12.9 | 0.00 | 0.00 | 0.10 | 89 | 1012.7 |
| 20260506230022 | 18 | 94 | 3.2 | 11.3 | 0.00 | 0.00 | 0.10 | 88 | 1012.4 |
| 20260506225023 | 19 | 99 | 4.8 | 20.9 | 0.00 | 0.00 | 0.10 | 87 | 1012.3 |
| 20260506224022 | 19 | 121 | 6.4 | 16.1 | 0.00 | 0.00 | 0.10 | 88 | 1011.9 |
| 20260506223025 | 19 | 87 | 4.8 | 16.1 | 0.00 | 0.00 | 0.10 | 88 | 1012.2 |
| 20260506222022 | 19 | 104 | 6.4 | 17.7 | 0.00 | 0.00 | 0.10 | 87 | 1012.1 |
| 20260506221021 | 18 | 108 | 8.0 | 19.3 | 0.00 | 0.00 | 0.10 | 90 | 1012.1 |